Location: Nians�bougou
(13.2321°N, 4.9818°W)
Time: 14:31:12
(UTC+00:00)

Cosmos 1741 Rocket - Pass Details

Date: 18 February 2020
Orbit: 761 x 783 km, 74.0° (Epoch: 29 March)

Event Time Altitude Azimuth Distance (km) Brightness Sun altitude
Rises 06:05:21 0° 189° (S) 3,209 7.2 -9.5°
Reaches altitude 10° 06:07:42 10° 188° (S) 2,285 6.5 -8.9°
Maximum altitude 06:12:53 76° 102° (ESE) 785 4.2 -7.7°
Drops below altitude 10° 06:18:05 10° 17° (NNE) 2,296 6.6 -6.5°
Sets 06:20:27 0° 16° (NNE) 3,226 7.3 -5.9°
